Change the Weather History Date:

Monday, December 31, 2012

  Actual Average (KJMS) Record (KJMS)
Temperature  
Mean Temperature 0 °F 11 °F  
Max Temperature 12 °F 20 °F 50 °F (1904)
Min Temperature -11 °F 2 °F -33 °F (1967)
Degree Days  
Heating Degree Days 64 54  
Month to date heating degree days 1576  
Since 1 July heating degree days 3660  
Cooling Degree Days 0 0  
Month to date cooling degree days 0  
Year to date cooling degree days 446  
Moisture  
Dew Point -3 °F    
Average Humidity 83    
Maximum Humidity 92    
Minimum Humidity 73    
Precipitation  
Precipitation 0.00 in 0.01 in 0.22 in (1993)
Month to date precipitation 0.40  
Year to date precipitation 18.77  
Sea Level Pressure  
Sea Level Pressure 30.18 in    
Wind  
Wind Speed 6 mph (West)    
Max Wind Speed 14 mph    
Max Gust Speed -    
Visibility 10 miles    
Events Snow    
T = Trace of Precipitation, MM = Missing Value Source: NWS Daily Summary

Daily Weather History Graph

Daily Weather History Graph

Search for Another Location

Airport or City:

Trip Planner

Search our weather history database for the weather conditions in past years. The results will help you decide how hot, cold, wet, or windy it might be!

Date:

Astronomy

Dec. 31, 2012 Rise Set
Actual Time 8:17 AM CST 4:53 PM CST
Civil Twilight 7:42 AM CST 5:28 PM CST
Nautical Twilight 7:03 AM CST 6:07 PM CST
Astronomical Twilight 6:26 AM CST 6:44 PM CST
Moon 8:39 PM CST (12/31) 9:46 AM CST (12/31)
Length of Visible Light 9h 46m
Length of Day
8h 35m
Waning Gibbous, 90% of the Moon is Illuminated
Dec 31
Waning Gibbous
Jan 4
Last Quarter
Jan 11
New
Jan 18
First Quarter
Jan 26
Full

Hourly Weather History & Observations

Time (CST) Temp. Windchill Dew Point Humidity Pressure Visibility Wind Dir Wind Speed Gust Speed Precip Events Conditions
12:15 AM 12.2 °F -1.0 °F 8.6 °F 85% 30.09 in 10.0 mi NNW 10.4 mph - N/A   Overcast
12:35 AM 12.2 °F -3.1 °F 6.8 °F 79% 30.09 in 10.0 mi North 13.8 mph - N/A   Overcast
12:55 AM 12.2 °F -1.0 °F 6.8 °F 79% 30.09 in 10.0 mi North 10.4 mph - N/A   Overcast
1:15 AM 10.4 °F -4.1 °F 6.8 °F 85% 30.09 in 10.0 mi North 11.5 mph - N/A   Overcast
1:55 AM 10.4 °F -4.1 °F 5.0 °F 79% 30.10 in 10.0 mi North 11.5 mph - N/A   Overcast
2:15 AM 10.4 °F -4.1 °F 5.0 °F 79% 30.11 in 10.0 mi North 11.5 mph - N/A   Overcast
2:35 AM 10.4 °F -5.4 °F 5.0 °F 79% 30.13 in 10.0 mi North 13.8 mph - N/A   Overcast
2:55 AM 8.6 °F -7.0 °F 1.4 °F 73% 30.13 in 10.0 mi NW 12.7 mph - N/A   Mostly Cloudy
3:15 AM 5.0 °F -6.9 °F -0.4 °F 78% 30.15 in 10.0 mi NNW 6.9 mph - N/A   Mostly Cloudy
3:35 AM 1.4 °F -14.5 °F -0.4 °F 92% 30.16 in 10.0 mi NNW 10.4 mph - N/A   Overcast
3:55 AM 3.2 °F -9.1 °F -0.4 °F 85% 30.17 in 10.0 mi NW 6.9 mph - N/A Snow Light Snow
4:15 AM 3.2 °F -7.8 °F -0.4 °F 85% 30.18 in 10.0 mi NW 5.8 mph - N/A   Overcast
4:35 AM 3.2 °F -10.3 °F -0.4 °F 85% 30.18 in 10.0 mi NW 8.1 mph - N/A   Overcast
4:55 AM 3.2 °F -9.1 °F -0.4 °F 85% 30.19 in 10.0 mi NW 6.9 mph - N/A Snow Light Snow
5:15 AM 5.0 °F -5.6 °F -0.4 °F 78% 30.19 in 10.0 mi NNW 5.8 mph - N/A   Overcast
5:35 AM 5.0 °F -2.1 °F -0.4 °F 78% 30.19 in 10.0 mi NNW 3.5 mph - N/A   Overcast
5:55 AM 5.0 °F - -0.4 °F 78% 30.19 in 10.0 mi Calm Calm - N/A   Overcast
6:15 AM 5.0 °F - -0.4 °F 78% 30.19 in 10.0 mi Calm Calm - N/A   Overcast
6:35 AM 3.2 °F -6.2 °F -0.4 °F 85% 30.20 in 10.0 mi ESE 4.6 mph - N/A   Overcast
6:55 AM 3.2 °F -6.2 °F -0.4 °F 85% 30.19 in 10.0 mi East 4.6 mph - N/A   Overcast
7:15 AM 3.2 °F -4.2 °F -0.4 °F 85% 30.19 in 10.0 mi East 3.5 mph - N/A   Overcast
7:35 AM 3.2 °F - -0.4 °F 85% 30.19 in 10.0 mi Calm Calm - N/A   Overcast
7:55 AM 3.2 °F - -0.4 °F 85% 30.19 in 10.0 mi Calm Calm - N/A   Overcast
8:15 AM 3.2 °F - -0.4 °F 85% 30.19 in 10.0 mi Calm Calm - N/A   Overcast
8:35 AM 1.4 °F -6.2 °F -0.4 °F 92% 30.19 in 10.0 mi East 3.5 mph - N/A   Overcast
8:55 AM 1.4 °F - -2.2 °F 85% 30.19 in 10.0 mi Calm Calm - N/A   Overcast
9:15 AM 1.4 °F -6.2 °F -2.2 °F 85% 30.19 in 10.0 mi East 3.5 mph - N/A Snow Light Snow
9:35 AM 1.4 °F - -2.2 °F 85% 30.19 in 9.0 mi Calm Calm - N/A Snow Light Snow
9:55 AM 1.4 °F -6.2 °F -0.4 °F 92% 30.21 in 9.0 mi ESE 3.5 mph - N/A   Overcast
10:15 AM 3.2 °F - -0.4 °F 85% 30.22 in 10.0 mi Calm Calm - N/A   Overcast
10:35 AM 3.2 °F - -0.4 °F 85% 30.22 in 9.0 mi Calm Calm - N/A   Overcast
10:55 AM 5.0 °F -4.1 °F -0.4 °F 78% 30.23 in 8.0 mi SSW 4.6 mph - N/A   Overcast
11:15 AM 5.0 °F - -0.4 °F 78% 30.23 in 9.0 mi Calm Calm - N/A   Overcast
11:35 AM 5.0 °F -4.1 °F -0.4 °F 78% 30.22 in 8.0 mi South 4.6 mph - N/A   Overcast
11:55 AM 5.0 °F -2.1 °F -0.4 °F 78% 30.22 in 9.0 mi SSW 3.5 mph - N/A   Overcast
12:15 PM 5.0 °F -4.1 °F -0.4 °F 78% 30.21 in 10.0 mi West 4.6 mph - N/A   Overcast
12:35 PM 5.0 °F -4.1 °F -0.4 °F 78% 30.20 in 10.0 mi WNW 4.6 mph - N/A   Overcast
1:35 PM 5.0 °F -4.1 °F -0.4 °F 78% 30.18 in 10.0 mi West 4.6 mph - N/A   Mostly Cloudy
1:55 PM 3.2 °F -7.8 °F -0.4 °F 85% 30.18 in 10.0 mi West 5.8 mph - N/A   Mostly Cloudy
2:15 PM 3.2 °F -6.2 °F -0.4 °F 85% 30.18 in 10.0 mi West 4.6 mph - N/A   Mostly Cloudy
2:35 PM 3.2 °F -4.2 °F -0.4 °F 85% 30.18 in 10.0 mi West 3.5 mph - N/A   Mostly Cloudy
2:55 PM 5.0 °F -5.6 °F -0.4 °F 78% 30.19 in 10.0 mi West 5.8 mph - N/A   Overcast
3:15 PM 5.0 °F -5.6 °F -0.4 °F 78% 30.19 in 10.0 mi West 5.8 mph - N/A   Overcast
3:35 PM 5.0 °F -4.1 °F -0.4 °F 78% 30.19 in 10.0 mi NW 4.6 mph - N/A Snow Light Snow
3:55 PM 5.0 °F - -0.4 °F 78% 30.19 in 10.0 mi Calm Calm - N/A   Overcast
4:35 PM 3.2 °F - -0.4 °F 85% 30.19 in 10.0 mi Calm Calm - N/A   Partly Cloudy
4:55 PM 1.4 °F - -0.4 °F 92% 30.19 in 10.0 mi Calm Calm - N/A   Clear
5:15 PM -0.4 °F - -2.2 °F 92% 30.19 in 10.0 mi Calm Calm - N/A   Clear
5:35 PM -2.2 °F - -4.0 °F 92% 30.19 in 10.0 mi Calm Calm - N/A   Clear
6:15 PM -2.2 °F - -4.0 °F 92% 30.19 in 10.0 mi Calm Calm - N/A   Clear
6:35 PM -4.0 °F -12.4 °F -7.6 °F 85% 30.19 in 10.0 mi SSW 3.5 mph - N/A   Scattered Clouds
7:15 PM -4.0 °F -14.6 °F -7.6 °F 85% 30.19 in 10.0 mi South 4.6 mph - N/A   Clear
7:35 PM -5.8 °F -14.5 °F -9.4 °F 84% 30.19 in 10.0 mi South 3.5 mph - N/A   Clear
7:55 PM -5.8 °F - -9.4 °F 84% 30.19 in 10.0 mi Calm Calm - N/A   Clear
8:15 PM -4.0 °F -12.4 °F -7.6 °F 85% 30.19 in 10.0 mi SSE 3.5 mph - N/A   Clear
8:35 PM -7.6 °F -18.8 °F -9.4 °F 92% 30.19 in 10.0 mi South 4.6 mph - N/A   Clear
8:55 PM -9.4 °F -20.9 °F -13.0 °F 84% 30.18 in 10.0 mi South 4.6 mph - N/A   Clear
9:15 PM -7.6 °F -16.5 °F -9.4 °F 92% 30.18 in 10.0 mi South 3.5 mph - N/A   Clear
9:35 PM -7.6 °F -18.8 °F -11.2 °F 84% 30.18 in 10.0 mi SSW 4.6 mph - N/A   Clear
9:55 PM -7.6 °F -20.6 °F -11.2 °F 84% 30.17 in - SSW 5.8 mph - N/A   Unknown
10:15 PM -7.6 °F - -11.2 °F 84% 30.18 in - Calm Calm - N/A   Unknown
10:35 PM -11.2 °F -20.6 °F -14.8 °F 84% 30.18 in 10.0 mi South 3.5 mph - N/A   Clear
10:55 PM -9.4 °F - -13.0 °F 84% 30.19 in 10.0 mi Calm Calm - N/A   Clear
11:15 PM -11.2 °F - -14.8 °F 84% 30.18 in 8.0 mi Calm Calm - N/A   Clear
11:35 PM -11.2 °F - -14.8 °F 84% 30.18 in 9.0 mi Calm Calm - N/A   Clear
11:55 PM -11.2 °F -24.8 °F -16.6 °F 77% 30.17 in - SSW 5.8 mph - N/A   Clear